Location: Ahstedt
(52.2048°N, 10.1060°E)
Time: 23:38:11
(UTC+00:00)

Sich 1 - Pass Details

Date: 18 January 2026
Orbit: 571 x 598 km, 82.5° (Epoch: 7 February)

Event Time Altitude Azimuth Distance (km) Brightness Sun altitude
Exits shadow 05:01:15 23° 348° (NNW) 1,267 4.4 -20.4°
Drops below altitude 10° 05:02:59 10° 360° (N) 1,898 5.5 -20.2°
Sets 05:05:16 0° 7° (N) 2,798 6.4 -19.8°
